Flag for India Weather past 2 weeks in Jalandhar, Punjab, India

Now
86 °F

Haze.


Feels Like: 86 °F
Forecast: 63 / 91 °F
Wind: 5 mph from West

Location: Amritsar Airport

Current Time: Oct 22, 2014 at 3:41:54 PM

Latest Report: Oct 22, 2014 at 2:30 PM


Visibility: 3 mi

Pressure: 29.98 "Hg

Humidity: 43%

Dew point: 61 °F

Location of JalandharLocation

Historic Weather in Jalandhar — Graph

°F

Jalandhar temperature yesterday

Maximum temperature yesterday: 88 °F (at 2:00 PM)
Minimum temperature yesterday: 63 °F (at 6:00 AM)
Average temperature yesterday: 74 °F

Past Weeks' High & Low Weather Summary

 TemperatureHumidityPressure
High90 °F (Oct 7, 2:30 PM)100% (Oct 8, 10:00 PM)30.09 "Hg (Oct 8, 10:00 PM)
Low57 °F (Oct 15, 7:00 AM)35% (Oct 12, 4:00 PM)29.77 "Hg (Oct 7, 3:30 PM)
Average73 °F76%29.93 "Hg
* Reported Oct 7 2:30 PM — Oct 22 2:30 PM, Jalandhar, Weather by CustomWeather, © 2014

Note: Actual official high and low records may vary slightly from our data, if they occured in-between our weather recording intervals... More about our weather records

Advertising

Jalandhar weather history for previous 24 hours

 ConditionsComfort  
Time TempWeatherWind HumidityBarometerVisibility
2:30 PM
Oct 22
86 °FHaze.5 mph43%29.98 "Hg3 mi
2:00 PM88 °FHaze.2 mph43%30.01 "Hg3 mi
1:30 PM86 °FHaze.2 mph46%30.01 "Hg3 mi
1:00 PM84 °FHaze.2 mph48%30.04 "Hg3 mi
12:30 PM84 °FHaze.3 mph45%30.07 "Hg3 mi
12:00 PM84 °FHaze.2 mph48%30.07 "Hg3 mi
11:30 AM84 °FHaze.2 mph48%30.09 "Hg3 mi
11:00 AM84 °FHaze.2 mph48%30.09 "Hg2 mi
10:30 AM82 °FHaze.No wind51%30.09 "Hg2 mi
10:00 AM81 °FHaze.No wind62%30.09 "Hg2 mi
9:30 AM77 °FHaze.No wind69%30.09 "Hg1 mi
9:00 AM73 °FFog.1 mph83%30.09 "Hg1 mi
8:30 AM70 °FFog.No wind88%30.07 "Hg1 mi
8:00 AM68 °FFog.No wind94%30.07 "Hg1 mi
7:30 AM64 °FFog.No wind100%30.07 "Hg1 mi
7:00 AM64 °FFog.No wind100%30.04 "Hg1 mi
6:00 AM63 °FFog.No wind100%30.04 "Hg1 mi
5:30 AM64 °FFog.No wind100%30.01 "Hg1 mi
5:00 AM64 °FFog.No wind100%30.01 "Hg1 mi
4:30 AM64 °FFog.5 mph94%30.01 "Hg1 mi
4:00 AM64 °FFog.1 mph94%30.01 "Hg1 mi
3:30 AM64 °FFog.No wind94%30.01 "Hg1 mi
3:00 AM66 °FFog.No wind88%30.01 "Hg1 mi
2:30 AM66 °FFog.No wind88%30.01 "Hg1 mi
2:00 AM66 °FFog.No wind88%30.01 "Hg1 mi
1:30 AM66 °FFog.No wind94%30.01 "Hg1 mi
1:00 AM66 °FFog.No wind94%30.01 "Hg1 mi
12:30 AM66 °FFog.No wind94%30.01 "Hg2 mi
12:00 AM66 °FFog.No wind94%30.01 "Hg2 mi
11:30 PM
Oct 21
68 °FFog.No wind88%30.01 "Hg2 mi
11:00 PM70 °FFog.No wind83%30.01 "Hg2 mi
10:30 PM70 °FFog.No wind83%30.01 "Hg2 mi
10:00 PM72 °FFog.No wind78%30.01 "Hg2 mi
9:30 PM72 °FFog.No wind78%30.01 "Hg2 mi
9:00 PM72 °FFog.No wind78%30.01 "Hg2 mi
8:30 PM72 °FFog.No wind78%30.01 "Hg2 mi
8:00 PM73 °FFog.No wind69%29.98 "Hg2 mi
7:30 PM73 °FFog.No wind74%29.98 "Hg2 mi
7:00 PM75 °FHaze.No wind69%29.98 "Hg2 mi
6:30 PM77 °FClear.No wind65%29.98 "Hg2 mi
6:00 PM81 °FClear.No wind51%29.95 "Hg3 mi
5:30 PM84 °FClear.No wind43%29.95 "Hg3 mi
5:00 PM84 °FClear.3 mph43%29.95 "Hg4 mi
4:30 PM86 °FClear.3 mph40%29.95 "Hg4 mi
4:00 PM86 °FClear.5 mph38%29.95 "Hg4 mi
3:30 PM88 °FClear.2 mph35%29.95 "Hg4 mi
3:00 PM88 °FClear.3 mph35%29.95 "Hg4 mi
Weather by CustomWeather, © 2014

See weather overviewHow to use our weather pages